Theta_e
316 321 327 326 332 335 335 335 337 341 342 343 345 347 348 348 351 358 351 348 349 350 338 335 332 334 338 345 346 345 341 341 338 332 324 323 324 328 329 329 327 324 323 323 326 331 334 337 336
317 324 326 328 334 336 335 335 336 339 342 339 342 345 345 350 351 351 349 348 350 348 336 334 332 332 336 343 345 345 343 342 339 332 324 323 325 326 325 324 324 324 323 324 326 330 335 338 337
313 325 328 332 334 336 337 334 335 338 339 339 343 344 343 349 350 350 348 348 349 346 344 334 330 330 338 343 345 345 344 342 338 331 324 324 326 325 324 323 323 323 323 325 326 331 337 339 340
317 322 326 331 334 335 336 337 335 338 338 338 339 343 346 350 350 351 348 348 346 344 346 333 330 327 333 343 344 343 343 340 336 328 324 324 326 325 325 324 323 323 323 325 327 328 334 338 340
318 321 327 329 331 335 336 337 335 337 337 337 338 342 348 351 352 350 349 348 344 344 346 334 331 327 325 328 336 339 339 336 331 324 324 325 326 326 325 325 323 323 322 323 326 328 333 337 338
319 320 324 327 329 331 336 336 334 335 336 336 340 343 351 350 352 350 349 346 344 346 345 336 332 330 328 326 323 327 329 328 323 323 324 324 327 326 325 325 324 323 323 322 323 325 327 329 330
320 321 322 325 326 329 332 335 336 334 335 336 337 343 353 353 351 349 348 345 346 348 345 335 333 332 331 329 324 322 322 322 323 324 323 323 326 325 325 325 322 322 323 323 323 323 325 326 328
319 321 322 323 325 327 330 334 334 333 334 335 338 344 354 355 350 349 347 346 346 348 347 343 337 335 334 333 330 324 322 323 322 322 321 322 325 324 327 324 322 321 323 323 323 323 324 326 328
318 321 322 323 324 326 328 333 333 333 333 334 341 349 356 355 352 350 349 348 347 347 348 345 344 342 341 336 334 330 325 322 322 321 320 320 323 324 327 324 326 322 321 322 323 323 323 323 323
320 321 322 324 325 325 326 330 331 333 332 335 344 350 351 353 354 351 351 350 349 348 347 346 345 346 345 344 337 334 331 327 324 322 322 323 339 340 343 337 324 323 322 321 321 322 322 322 323
319 321 322 323 324 324 325 327 328 332 334 333 342 350 350 353 355 353 352 351 350 349 347 347 346 346 346 345 342 343 343 341 336 335 327 332 340 345 342 342 330 323 323 323 329 325 321 328 335
319 320 321 322 322 322 324 325 326 329 331 333 334 348 350 352 355 354 352 352 351 350 348 348 348 348 347 346 346 346 346 346 346 345 340 337 341 342 341 338 339 339 338 337 340 339 339 339 340
320 320 319 320 321 321 323 324 326 327 329 331 336 346 349 352 354 354 353 352 352 351 350 349 350 351 350 348 348 347 347 347 347 348 348 345 344 341 341 339 339 339 337 337 338 337 339 342 345
320 320 320 319 321 321 322 323 323 324 324 327 335 344 347 350 353 354 354 354 354 353 352 351 352 353 353 351 350 349 349 348 348 348 349 346 347 343 342 340 340 337 337 337 336 336 338 346 346
319 320 320 321 320 322 321 322 323 322 323 325 333 340 342 348 351 354 355 354 355 356 355 354 353 354 354 355 354 352 350 349 349 348 349 350 347 346 338 342 340 337 337 337 337 338 339 343 345
318 320 321 321 321 320 320 321 322 322 324 328 331 338 341 343 348 351 355 356 356 356 356 355 353 353 354 354 355 353 351 350 349 349 349 350 348 334 340 342 340 339 337 337 338 339 343 344 345
317 320 321 321 321 320 321 321 323 321 322 328 330 335 339 341 344 348 351 356 355 355 355 354 355 353 354 354 353 352 350 351 349 350 349 348 339 334 322 333 340 339 339 337 337 340 343 346 347
318 318 320 321 321 320 320 321 322 321 322 326 330 334 336 338 340 344 347 352 356 358 355 355 354 354 354 353 353 351 350 350 349 348 340 341 339 343 327 326 339 339 340 338 337 337 342 347 348
318 319 320 321 322 320 321 321 321 322 322 326 329 331 331 333 336 338 338 339 344 351 355 356 355 354 354 352 350 349 348 348 347 346 337 339 340 335 329 328 339 339 340 339 339 338 339 344 347
318 319 319 320 320 320 321 321 322 322 322 323 327 329 330 330 332 335 336 337 337 341 348 355 355 354 353 352 351 350 348 347 346 343 339 336 342 332 334 339 338 342 345 344 346 348 348 348 346
318 320 319 320 319 319 320 321 321 322 321 321 324 327 328 330 330 332 334 335 338 339 341 345 350 354 354 353 353 352 350 349 349 348 348 349 345 342 339 344 345 349 350 350 348 347 345 347 343
319 319 319 319 319 319 320 320 322 322 322 323 321 323 325 328 328 328 330 333 336 339 341 343 346 350 352 353 350 349 350 350 349 350 350 350 350 349 349 349 348 348 348 350 349 347 345 345 344
319 318 319 319 319 320 319 321 321 321 323 324 324 322 325 327 326 325 327 329 332 334 336 342 345 347 348 350 350 349 348 350 348 348 348 348 348 348 348 348 345 344 348 347 346 344 342 339 335
319 318 318 318 319 320 321 320 322 322 322 325 325 324 325 323 323 325 326 327 328 329 330 335 344 346 347 348 349 347 350 350 348 347 346 345 345 344 343 342 342 347 342 343 345 344 343 340 337
318 319 319 319 319 322 323 322 324 323 322 322 323 321 321 321 322 322 324 324 324 326 327 337 344 344 345 345 345 346 347 347 346 346 345 344 343 343 338 337 337 337 337 338 340 339 340 343 344
318 319 321 321 322 321 323 323 323 325 323 321 321 321 321 321 322 322 322 323 324 324 324 333 340 342 341 343 344 344 346 345 344 343 341 339 336 334 332 331 331 331 330 330 331 331 337 336 335
317 320 321 322 322 323 323 323 324 323 323 323 323 323 322 322 322 322 323 323 324 325 329 334 341 341 339 342 341 342 342 340 338 336 334 333 331 328 329 329 327 326 326 325 326 325 327 327 327
318 321 321 322 324 323 324 324 323 322 325 327 328 327 327 327 326 325 328 327 327 337 339 339 338 336 337 337 336 335 333 331 329 329 327 324 322 321 318 317 316 316 317 315 314 318 320 318 321
317 318 320 322 322 325 324 323 324 326 326 329 330 328 333 333 333 333 334 337 336 336 335 335 334 332 330 328 326 325 324 323 321 320 320 317 311 312 316 316 316 315 315 315 315 314 314 316 317
317 319 321 323 324 324 324 327 324 329 331 333 334 335 332 333 333 333 333 332 333 332 332 330 328 325 323 321 320 314 313 315 311 310 310 309 309 310 308 309 308 307 310 310 311 311 311 312 313
Wind_Speed
16 9 9 11 8 8 18 20 20 3 3 5 2 6 13 20 15 5 15 12 20 23 28 25 22 21 22 24 24 22 19 16 14 12 14 15 14 12 11 10 10 9 10 11 11 12 11 11 10
13 11 11 14 10 15 15 20 15 9 10 3 5 4 3 16 13 17 14 21 23 25 28 25 23 22 22 23 24 22 19 16 13 12 14 15 13 11 10 9 9 9 10 10 10 10 9 8 7
17 12 15 11 16 18 18 22 11 12 5 8 6 4 5 10 10 9 18 23 23 24 24 24 22 22 23 23 23 22 19 16 13 12 14 15 13 11 10 8 8 9 9 9 9 9 7 7 6
11 16 17 16 23 25 27 7 11 14 12 9 4 10 9 6 6 8 21 25 24 24 22 25 22 22 22 23 22 20 19 16 14 12 15 15 13 11 9 8 7 8 9 9 9 8 8 6 5
19 19 13 19 25 26 23 4 2 8 17 14 8 11 11 8 10 18 23 24 24 24 22 24 22 20 21 21 20 20 19 16 14 13 16 15 13 10 8 7 6 7 7 8 8 7 8 6 5
19 25 14 22 25 27 22 10 7 17 11 8 10 11 9 9 15 21 22 22 23 24 23 25 23 21 20 19 18 19 18 16 14 15 16 15 13 10 8 7 6 6 6 7 8 8 8 8 8
22 17 23 24 25 25 27 16 16 16 7 12 5 6 10 13 17 22 22 22 23 22 24 27 25 22 20 19 18 17 16 15 15 15 15 15 13 10 8 7 6 6 6 6 7 8 9 9 9
29 17 27 26 22 27 26 23 17 21 14 8 3 3 15 14 20 22 23 23 22 22 22 24 25 23 21 19 17 15 14 14 14 14 15 15 12 10 8 7 6 6 7 7 7 8 9 9 9
29 17 23 30 27 22 23 17 22 18 17 8 5 4 16 14 19 22 24 24 23 22 21 23 22 22 19 19 18 16 15 14 14 14 15 14 12 11 10 9 7 7 8 8 8 9 9 8 8
22 21 30 23 22 22 20 23 23 18 15 11 11 8 11 14 18 22 25 26 25 25 24 23 23 22 20 17 19 19 18 17 17 17 16 15 11 10 9 12 9 9 8 9 9 10 10 9 7
33 25 23 26 26 27 20 16 17 21 19 18 19 15 12 15 18 20 22 24 25 24 22 23 24 23 21 17 19 15 15 14 15 15 15 14 12 12 14 10 13 12 11 9 9 11 9 6 8
25 31 31 24 21 13 15 15 23 19 19 17 9 17 13 15 18 20 21 23 24 24 23 22 23 24 22 17 17 15 14 14 14 15 16 15 15 14 12 12 10 10 11 9 9 9 7 11 11
31 23 30 32 19 16 16 18 18 17 22 9 8 9 13 13 14 18 20 21 22 23 23 22 22 22 23 21 16 16 16 15 13 15 16 14 13 14 13 14 14 14 11 11 11 9 11 10 10
25 28 22 33 20 20 24 22 20 22 19 11 13 14 15 14 14 15 19 20 22 22 22 21 21 21 21 20 17 16 16 15 15 14 14 16 13 14 12 13 14 14 13 14 11 11 12 11 10
30 24 25 21 25 18 22 21 24 23 19 19 19 17 15 14 15 15 17 20 21 21 22 22 20 20 22 20 17 16 14 15 14 14 16 16 16 16 16 12 12 13 15 15 15 15 13 13 12
21 19 23 25 24 26 23 24 23 27 23 21 24 19 14 14 16 16 17 18 20 21 22 22 20 19 20 19 17 15 13 13 13 13 14 17 18 17 12 13 15 14 15 14 13 12 11 12 12
20 25 25 28 25 20 23 17 23 25 26 24 24 23 18 15 14 14 16 17 21 21 22 22 20 19 18 18 17 15 14 15 15 18 23 17 19 19 16 17 16 18 15 15 13 13 13 13 14
29 32 25 26 24 26 22 19 17 26 26 25 25 25 21 19 16 16 15 15 15 15 18 18 20 18 17 16 16 14 14 15 16 16 17 18 19 19 19 18 18 22 16 16 13 16 13 14 15
23 24 24 24 21 24 24 21 19 25 24 25 25 25 24 21 19 16 16 14 14 15 15 15 18 19 19 17 16 16 15 15 15 16 21 19 17 19 18 17 16 23 20 18 15 17 17 16 14
26 24 27 21 18 21 22 22 17 14 19 26 27 25 24 22 22 19 17 15 13 12 13 14 14 16 19 16 16 14 15 15 16 15 19 21 19 19 18 19 19 21 18 18 17 17 16 17 16
27 24 26 22 17 17 21 20 27 19 21 29 29 27 25 25 23 21 17 15 13 12 11 12 14 15 15 15 14 15 13 14 14 14 17 18 20 19 19 20 17 20 20 18 19 18 19 20 19
27 18 21 22 18 15 25 14 23 22 20 22 31 31 30 27 23 21 19 16 13 11 10 9 10 12 13 15 18 18 15 15 15 18 17 20 19 15 18 18 18 18 15 15 17 19 21 19 20
21 18 21 21 19 20 20 17 24 20 20 24 22 30 30 27 26 25 22 19 16 11 10 9 10 10 11 11 15 18 16 17 16 18 18 14 15 13 16 14 12 14 11 13 16 18 21 23 26
22 25 17 15 16 17 24 19 17 26 27 23 23 25 24 24 23 21 21 18 16 14 12 11 9 7 8 11 12 18 13 13 11 12 13 11 11 10 15 14 12 13 15 18 19 22 22 24 29
22 23 16 16 15 16 18 19 7 22 24 26 24 29 27 25 23 22 22 21 20 19 14 11 7 6 6 8 8 9 10 12 11 8 5 3 6 5 5 7 11 12 16 16 17 21 22 23 22
27 25 16 28 19 15 21 13 9 11 16 24 27 25 26 25 23 22 22 20 19 18 17 7 5 5 5 7 7 8 9 10 9 9 6 5 1 2 3 5 9 12 15 15 17 14 11 14 19
29 24 23 16 16 15 18 8 14 16 12 12 16 17 19 21 20 20 18 17 15 15 10 7 10 8 10 13 12 13 13 13 5 5 4 2 4 3 3 7 8 9 11 13 15 11 16 16 18
23 25 12 10 19 15 15 15 14 16 16 15 14 12 16 16 14 12 10 9 9 12 12 13 12 11 12 14 14 13 13 12 10 7 5 2 1 4 6 6 9 12 12 14 16 13 13 18 17
16 16 12 7 17 11 14 13 20 17 17 13 13 17 21 18 18 17 17 16 15 13 14 15 19 18 17 17 17 16 14 12 9 7 5 3 5 7 7 8 8 9 11 13 16 16 16 16 19
20 23 16 8 9 11 12 9 17 14 12 17 20 21 17 19 21 21 21 21 21 21 24 24 21 19 17 16 15 13 11 8 4 2 4 6 6 8 9 10 12 11 12 13 14 16 16 17 18
Wind_Direction
245 257 289 265 243 232 247 232 252 143 180 76 44 326 31 37 16 59 137 140 150 152 156 155 157 156 163 168 168 168 164 158 149 143 145 150 150 146 143 141 139 137 134 133 133 129 114 106 103
227 251 248 262 243 243 231 239 190 233 85 132 160 167 135 70 66 114 125 143 152 152 156 158 157 156 163 169 171 170 169 165 156 153 155 156 155 153 148 146 148 144 141 139 144 141 127 117 116
216 222 254 230 235 241 244 211 163 199 125 210 181 357 67 95 102 109 142 148 151 151 153 158 157 157 166 170 172 173 174 172 168 164 164 163 161 157 151 148 153 153 151 151 154 155 150 142 135
213 221 241 257 240 226 254 265 183 143 184 195 99 113 97 105 118 141 144 149 150 152 159 157 158 157 161 167 173 178 181 181 178 174 172 168 166 164 155 155 159 161 164 168 169 170 174 169 158
212 223 227 231 236 248 221 240 111 197 187 180 174 129 110 102 122 139 147 151 150 154 163 158 158 155 157 164 176 182 187 189 186 179 177 174 173 172 163 164 166 170 174 184 190 188 192 203 210
209 223 226 227 229 230 252 176 192 246 191 176 211 128 109 139 139 144 151 151 155 158 161 162 159 158 156 159 169 181 188 190 187 181 180 179 183 181 177 176 180 180 184 198 206 210 216 227 241
223 210 230 238 223 229 228 200 213 221 216 220 109 210 123 137 150 151 153 154 158 163 157 164 163 162 160 162 165 172 179 182 181 182 183 185 189 190 190 196 197 192 196 209 218 223 231 238 247
224 241 232 236 243 227 208 182 217 217 215 90 125 212 150 141 149 154 156 159 163 164 167 165 169 168 167 165 162 163 169 175 180 183 186 191 196 199 202 210 210 212 210 215 225 232 237 246 254
217 232 234 228 229 239 221 178 212 221 225 169 130 24 114 147 156 159 161 165 167 168 171 168 170 172 169 173 168 166 167 173 181 187 193 196 202 203 210 221 217 225 228 229 235 242 249 256 264
215 225 231 239 235 235 236 187 205 213 212 174 172 133 148 158 168 172 171 172 174 174 175 177 174 176 172 177 180 177 179 182 186 193 197 198 191 208 210 242 231 232 237 243 250 255 261 268 288
216 229 228 238 242 239 230 201 205 213 212 206 183 167 165 165 172 182 182 180 179 179 178 181 179 182 177 179 187 183 188 191 192 196 204 185 199 214 206 233 245 238 239 245 261 268 267 293 268
215 225 245 228 244 236 232 221 216 219 215 209 171 151 170 172 178 185 186 183 182 182 182 185 183 183 181 186 190 190 194 197 196 202 212 196 197 213 213 218 229 237 238 232 225 247 269 249 266
220 224 221 244 237 218 226 229 213 204 225 153 174 166 178 179 183 188 188 185 185 187 186 187 189 189 186 188 196 194 198 205 206 211 214 200 211 215 219 217 218 226 228 235 233 243 246 259 269
217 223 234 222 236 207 224 227 222 221 215 191 195 194 186 180 180 185 187 186 189 188 189 190 194 199 194 194 202 201 206 213 208 216 219 209 216 231 221 226 234 231 226 229 236 242 245 261 256
225 218 228 220 214 206 212 227 211 214 215 196 205 202 190 180 181 184 186 187 188 190 193 194 196 203 200 206 207 207 218 208 218 217 222 227 218 222 225 238 237 236 237 228 231 233 242 249 256
218 212 214 214 208 214 204 218 212 212 199 204 205 194 182 180 180 184 185 189 192 192 193 194 200 207 209 208 213 213 217 222 222 224 231 223 220 224 252 234 242 234 233 233 238 245 250 252 256
209 214 218 203 204 208 209 226 201 200 212 204 198 195 184 174 175 174 182 193 195 196 209 201 200 204 211 208 211 217 219 219 217 221 221 234 232 234 235 238 237 240 236 233 231 236 242 250 258
199 212 204 214 188 209 194 227 227 182 206 204 195 200 193 181 182 173 174 181 188 193 201 205 202 205 208 214 215 216 221 226 224 232 235 237 234 235 241 229 226 241 236 236 228 236 243 249 260
203 204 218 206 189 197 214 207 214 181 204 201 198 196 199 201 187 185 180 181 188 197 197 199 207 207 205 212 216 221 225 235 236 228 247 241 245 243 243 249 237 251 239 231 235 245 250 254 260
227 189 216 188 186 191 205 204 202 203 204 209 206 198 201 198 197 186 188 187 188 191 201 206 206 209 211 207 212 218 227 238 245 254 262 256 248 254 254 251 238 247 240 245 237 234 241 251 255
226 205 196 199 160 188 200 213 214 180 202 212 211 203 204 202 199 187 190 192 193 195 204 205 210 211 218 208 220 222 222 230 244 250 249 251 244 243 241 246 236 237 239 247 245 248 251 255 257
211 208 197 200 166 192 201 204 207 202 197 209 208 209 207 207 209 211 201 197 200 202 198 198 201 209 218 224 222 230 226 242 248 251 251 242 241 222 240 239 236 247 246 257 262 256 257 255 255
209 186 212 191 183 193 191 231 192 201 197 204 206 205 207 203 214 220 220 212 208 207 207 210 212 213 215 228 216 235 234 244 255 250 256 263 262 252 254 253 246 261 267 273 268 265 256 263 262
204 189 191 187 186 221 176 220 215 191 199 192 199 204 210 215 218 217 215 219 220 218 216 198 190 202 217 215 230 223 231 237 249 241 245 252 250 250 237 247 262 248 256 265 267 266 270 269 267
202 190 171 186 196 212 177 200 122 177 194 193 196 204 213 216 220 221 219 221 223 222 218 168 167 178 200 213 220 229 219 226 237 238 242 177 187 182 252 262 274 276 276 276 276 277 278 273 276
191 190 173 180 185 189 183 196 196 142 179 192 191 197 202 209 212 216 218 214 218 215 222 180 152 155 179 183 176 188 195 203 202 182 157 158 120 212 240 266 271 273 277 280 280 292 289 291 281
185 197 194 189 188 188 156 171 130 141 150 157 157 172 184 195 206 204 208 211 214 218 203 150 144 145 184 170 168 172 170 172 192 144 101 92 148 0 279 289 289 294 291 291 290 300 292 298 295
197 202 206 231 185 160 169 175 149 163 159 161 162 169 191 192 192 174 127 126 146 116 117 114 118 120 120 112 108 108 106 102 101 116 145 125 312 328 330 312 310 314 312 312 305 304 298 294 301
189 221 233 236 202 173 170 172 142 169 173 144 143 132 103 116 117 120 122 126 125 119 121 123 120 118 111 107 103 100 94 92 93 88 70 29 344 340 337 328 319 314 320 319 310 307 314 297 297
190 200 212 204 170 168 147 97 150 125 119 127 118 112 122 124 125 125 121 120 120 120 117 115 118 113 105 98 94 92 89 83 72 30 331 317 313 305 302 302 301 306 318 307 314 314 308 304 301